Find Starlink 31233

NORAD ID: 58826 Int'l Des: 2024-017 Owner: SPXS Country: US Constellation: starlink operational
LEOCIRCULAR

Current View

Loading 3D Globe...

About Starlink 31233

Starlink 31233 (NORAD 58826) is a starlink constellation satellite (v2 mini) launched Jan 24, 2024 by SPXS of US. It operates in LEO, CIRCULAR orbit with a mass of 730.00 kg.

About Starlink 31233

Description loading...

Upcoming Passes

Passes for default location (London). Set your location on the main map for personalized predictions.

Altitude History

Loading altitude history...

Two-Line Element Set

1 58826U 24017A 26167.09729905 -.00001224 00000-0 -29195-4 0 9997
2 58826 53.1603 107.1762 0001450 88.1115 272.0052 15.30200440135249
Epoch: Jun 16, 2026 • Age: 7 hours

Current Status

Altitude 478.4 km
Velocity 7.63 km/s
Sub-Earth Point 41.71°N, 157.58°W
Launch Date Jan 24, 2024
Age 2.3 years
Type internet

Technical Details

Classification Payload
Mass 730.00 kg
Dry Mass 700.00 kg
Total Mass 730.00 kg
Length 0.30 m
Diameter 4.10 m
Span 29.00 m
Shape Box + pan
Manufacturer SPXS
Bus Type Starlink V2M
Phase Status In Orbit
Owner/State SPXS/US

Most Searched